Overview Statistics Trail Chart Weather Telemetry Raw packets
 

This is the latest recevied weather packets stored in our database for station/object AG1T-20. If no packets are shown the sender has not sent any weather packets the latest 10 day(s).

<< 40 41 42 43 44 45 46 >>
Time Temp. Humidity Pressure Rain* Wind** Luminosity Snow
1787994605 18.33° C 75% 1020.9 hPa 0 mm - 0 W/m² -
1787994005 18.33° C 75% 1020.9 hPa 0 mm - 0 W/m² -
1787993405 18.33° C 74% 1020.5 hPa 0 mm - 0 W/m² -
1787992804 18.89° C 74% 1020.5 hPa 0 mm - 0 W/m² -
1787992205 18.89° C 73% 1020.5 hPa 0 mm - 0 W/m² -
1787991605 18.33° C 74% 1020.5 hPa 0 mm - 0 W/m² -
1787991005 18.89° C 74% 1020.5 hPa 0 mm - 0 W/m² -
1787990404 18.33° C 76% 1020.5 hPa 0 mm - 0 W/m² -
1787989805 18.33° C 77% 1020.1 hPa 0 mm - 0 W/m² -
1787989205 17.78° C 81% 1020.1 hPa 0 mm - 0 W/m² -
1787988605 17.78° C 79% 1020.1 hPa 0 mm - 0 W/m² -
1787988005 18.89° C 70% 1020.1 hPa 0 mm - 0 W/m² -
1787987405 18.33° C 72% 1020.1 hPa 0 mm - 0 W/m² -
1787986805 17.78° C 81% 1020.1 hPa 0 mm - 0 W/m² -
1787986205 17.78° C 78% 1022.1 hPa 0 mm - 0 W/m² -
1787985605 17.78° C 78% 1022.1 hPa 0.51 mm - 0 W/m² -
1787985005 17.22° C 87% 1022.1 hPa 1.02 mm - 0 W/m² -
1787984405 17.22° C 91% 1022.1 hPa 1.02 mm - 0 W/m² -
1787983805 17.22° C 91% 1022.1 hPa 1.02 mm - 0 W/m² -
1787983205 17.22° C 92% 1022.1 hPa 1.27 mm - 0 W/m² -
1787982605 16.67° C 93% 1021.2 hPa 1.27 mm - 0 W/m² -
1787982005 16.67° C 92% 1021.2 hPa 0.76 mm - 0 W/m² -
1787981405 17.22° C 91% 1021.2 hPa 0.25 mm - 0 W/m² -
1787980805 17.78° C 90% 1021.2 hPa 0.25 mm - 0 W/m² -
1787980205 17.78° C 90% 1021.2 hPa 0.25 mm - 0 W/m² -

* Rain latest hour (hover to see other rain measurements)
** Current wind speed in m/s (hover to see current wind gust speed)